Tracking 30922 objects as of 2-Jul-2025
HD Live streaming from Space Station
objects crossing your sky now

COSMOS 1275 DEB

Track COSMOS 1275 DEB now!
10-day predictions


NORAD ID: 12663
Int'l Code: 1981-053T
Perigee: 906.9 km
Apogee: 983.1 km
Inclination: 83.0 °
Period: 103.8 minutes
Semi major axis: 7316 km
RCS: 0.0867 m2 (small)
Launch date: June 4, 1981
Source: Commonwealth of Independent States (former USSR) (CIS)
Launch site: PLESETSK MISSILE AND SPACE COMPLEX (PKMTR)

Note: This is SATELLITE DEBRIS
Your satellite tracking list
STARLINK-1671
Track 1 satellite(s)




NASA's NSSDC Master Catalog

Two Line Element Set (TLE):
1 12663U 81053T   25182.73112221  .00000542  00000-0  44213-3 0  9990
2 12663  82.9518  65.4703 0052057  82.2558 343.5706 13.87364302210836
Source of the keplerian elements: AFSPC